User: anonymous   Login
Location: Unspecified
(0.0000°N, 0.0000°E)
Time: 17:07:53
(UTC+00:00)
Language:

COMPASS 1 - Orbit

View from above orbital plane
View from above orbital plane
View from above satellite
View from above satellite

Ground track
Ground track

The orbit data is extracted from the following two-line orbital elements,

1 32787U 08021E   17265.01718576  .00000536  00000-0  57080-4 0  9992
2 32787  97.5533 294.3099 0012926 168.2470 191.9054 14.92716718509947
Epoch (UTC): 22 September 2017 00:24:44
Eccentricity: 0.0012926
inclination: 97.5533°
perigee height: 580 km
apogee height: 598 km
right ascension of ascending node: 294.3099°
argument of perigee: 168.2470°
revolutions per day: 14.92716718
mean anomaly at epoch: 191.9054°
orbit number at epoch: 50994

The dashed part of the orbit path shows where the satellite is in the earth's shadow,  

DLR